This is the latest recevied weather packets stored in our database for station/object WD7OO. If no packets are shown the sender has not sent any weather packets the latest 1 day(s).
| Time | Temp. | Humidity | Pressure | Rain* | Wind** | Luminosity | Snow |
|---|---|---|---|---|---|---|---|
| 1778003260 | 12.22° C | 67% | 1009.4 hPa | 0 mm | 0 m/s | 399 W/m² | - |
| 1778002957 | 11.67° C | 65% | 1009.5 hPa | 0 mm | 0.45 m/s, 346° | 334 W/m² | - |
| 1778002653 | 11.67° C | 67% | 1009.7 hPa | 0 mm | 1.34 m/s, 305° | 303 W/m² | - |
| 1778002350 | 11.67° C | 64% | 1009.5 hPa | 0 mm | 1.34 m/s, 218° | 317 W/m² | - |
| 1778002047 | 11.67° C | 64% | 1009.5 hPa | 0 mm | 1.34 m/s, 262° | 435 W/m² | - |
| 1778001744 | 12.22° C | 67% | 1009.5 hPa | 0 mm | 0.89 m/s, 255° | 389 W/m² | - |
| 1778001444 | 11.67° C | 64% | 1009.3 hPa | 0 mm | 0.45 m/s, 312° | 449 W/m² | - |
| 1778001141 | 11.67° C | 68% | 1009.4 hPa | 0 mm | 0 m/s | 427 W/m² | - |
| 1778000838 | 11.11° C | 69% | 1009.2 hPa | 0 mm | 0.89 m/s, 320° | 396 W/m² | - |
| 1778000535 | 10.56° C | 71% | 1009.5 hPa | 0 mm | 0.45 m/s, 247° | 380 W/m² | - |
| 1778000230 | 10.56° C | 75% | 1009.5 hPa | 0 mm | 0.45 m/s, 288° | 337 W/m² | - |
| 1777999926 | 10.56° C | 70% | 1009.5 hPa | 0 mm | 0 m/s | 308 W/m² | - |
| 1777999622 | 10.56° C | 70% | 1009.4 hPa | 0 mm | 0.45 m/s, 270° | 437 W/m² | - |
| 1777999319 | 10° C | 76% | 1009.6 hPa | 0 mm | 0.89 m/s, 286° | 491 W/m² | - |
| 1777999017 | 10° C | 72% | 1009.5 hPa | 0 mm | 0.89 m/s, 294° | 395 W/m² | - |
| 1777998715 | 10.56° C | 74% | 1009.2 hPa | 0 mm | 1.34 m/s, 276° | 501 W/m² | - |
| 1777998412 | 10° C | 74% | 1009.3 hPa | 0 mm | 0.45 m/s, 282° | 348 W/m² | - |
| 1777998110 | 10° C | 74% | 1009.2 hPa | 0 mm | 0.45 m/s, 83° | 534 W/m² | - |
| 1777997806 | 9.44° C | 79% | 1009.2 hPa | 0 mm | 0 m/s | 457 W/m² | - |
| 1777997504 | 10° C | 77% | 1009 hPa | 0 mm | 0.45 m/s, 293° | 496 W/m² | - |
| 1777997202 | 8.89° C | 79% | 1009.2 hPa | 0 mm | 0.45 m/s, 12° | 797 W/m² | - |
| 1777996899 | 8.33° C | 79% | 1009.1 hPa | 0 mm | 1.34 m/s, 252° | 773 W/m² | - |
| 1777996595 | 7.78° C | 82% | 1009.5 hPa | 0 mm | 0.45 m/s, 295° | 306 W/m² | - |
| 1777996291 | 7.78° C | 81% | 1009.1 hPa | 0 mm | 1.34 m/s, 289° | 276 W/m² | - |
| 1777995987 | 7.78° C | 83% | 1009.3 hPa | 0 mm | 0.45 m/s, 336° | 389 W/m² | - |
* Rain latest hour (hover to see other rain measurements)
** Current wind speed in m/s (hover to see current wind gust speed)